Regional Weather Roundup
Issued by NWS

Home | Current Version | Previous Version | Graphics & Text | Print | Product List | Glossary On
Versions: 1 2 3 4 5 6 7 8 9 10 11 12 13 14 15 16 17 18 19 20 21 22 23 24 25 26 27 28 29 30 31 32 33 34 35 36 37 38 39 40 41 42 43 44 45 46 47 48 49 50
508
ASUS43 KOAX 142102
RWRNE

WEATHER ROUNDUP FOR NEBRASKA
NATIONAL WEATHER SERVICE OMAHA NE
300 PM CST SUN FEB 14 2016

NOTES: SATELLITE DATA IS BEING USED TO AUGMENT CLOUD COVER ABOVE
       12000 FEET.
       "FAIR" INDICATES FEW OR NO CLOUDS BELOW 12,000 FEET WITH NO
       SIGNIFICANT WEATHER AND/OR OBSTRUCTIONS TO VISIBILITY.

  * THESE STATIONS DO NOT REPORT WEATHER SUCH AS RAIN...SNOW OR FOG.

NEZ001>004-019>022-054>056-142200-
NEBRASKA PANHANDLE

CITY           SKY/WX    TMP DP  RH WIND       PRES   REMARKS
SCOTTSBLUFF    CLOUDY    53  25  33 W23G35    29.79F
ALLIANCE       MOSUNNY   49  23  36 NW21G29   29.79S
CHADRON        CLOUDY    51  22  31 NW14      29.80F
SIDNEY         CLOUDY    50  27  40 NW21G28   29.82F
$$

NEZ057>060-069>072-079>082-142200-
SOUTHWEST NEBRASKA

CITY           SKY/WX    TMP DP  RH WIND       PRES   REMARKS
NORTH PLATTE   SUNNY     49  26  41 W12       29.82F
IMPERIAL       CLOUDY    48  23  37 SW13      29.83F
MCCOOK         CLOUDY    46  28  49 SW13      29.85F
$$

NEZ005>010-023>029-035>040-094-142200-
NORTH CENTRAL NEBRASKA

CITY           SKY/WX    TMP DP  RH WIND       PRES   REMARKS
VALENTINE      CLOUDY    48  25  40 NW14      29.77F
AINSWORTH      CLOUDY    47  27  44 W12       29.77F
BROKEN BOW     CLOUDY    49  28  44 W9        29.79F
ORD            CLOUDY    47  31  53 N3        29.78F
$$

NEZ041-046>049-061>064-073>077-083>087-142200-
SOUTH CENTRAL NEBRASKA

CITY           SKY/WX    TMP DP  RH WIND       PRES   REMARKS
GRAND ISLAND   CLOUDY    44  31  60 W6        29.83S
HASTINGS       MOSUNNY   43  31  62 W9        29.83F
HEBRON         MOSUNNY   46  32  57 NW10      29.85R
KEARNEY *      CLOUDY    48  28  46 SW12      29.84S
YORK           CLOUDY    43  34  70 NW7       29.84R
$$

NEZ011>018-030>034-042>045-142200-
NORTHEAST NEBRASKA

CITY           SKY/WX    TMP DP  RH WIND       PRES   REMARKS
NORFOLK        CLOUDY    37  30  75 NW7       29.80R WCI  32
BLAIR          CLOUDY    33  28  80 W7        29.83R WCI  27
COLUMBUS *     CLOUDY    39  27  60 NW7       29.83S WCI  34
FREMONT        CLOUDY    35  29  77 W7        29.84R WCI  29
TEKAMAH        CLOUDY    31  24  75 NW7       29.83R WCI  24
$$

NEZ050>053-065>068-078-088>093-142200-
SOUTHEAST NEBRASKA

CITY           SKY/WX    TMP DP  RH WIND       PRES   REMARKS
LINCOLN        MOSUNNY   41  32  70 N7        29.85S
OMAHA EPPLEY   CLOUDY    36  27  69 W12       29.83R WCI  28
BEATRICE       SUNNY     46  32  58 NW13      29.83S
FALLS CITY     CLOUDY    47  30  51 NW12      29.83S
NEBRASKA CITY  CLOUDY    40  30  68 NW15      29.84R WCI  31
$$

NEZ044-045-051>053-067-142200-
OMAHA AREA

CITY           SKY/WX    TMP DP  RH WIND       PRES   REMARKS
OMAHA EPPLEY   CLOUDY    36  27  69 W12       29.83R WCI  28
BLAIR          CLOUDY    33  28  80 W7        29.83R WCI  27
FREMONT        CLOUDY    35  29  77 W7        29.84R WCI  29
OFFUTT AFB     CLOUDY    38  30  72 W12       29.83R WCI  31
WAHOO          CLOUDY    36  31  83 N5        29.84R WCI  32
$$




USA.gov is the U.S. government's official web portal to all federal, state and local government web resources and services.